AA9VI-10 Weather Reports


Display with metric or nautical units.
time (UTC)temp
F
wind
direction
speed
MPH
gust
MPH
rain 1hr
in
rain 24hr
in
rain mn
in
humidity
%
barometer
mb
20260906181016 79 113 2.0 4.0 0.00 0.00 0.00 57 1019.9
20260906180016 80 90 1.0 3.0 0.00 0.00 0.00 57 1020.1
20260906175016 80 45 1.0 3.0 0.00 0.00 0.00 57 1020.1
20260906174016 80 45 1.0 3.0 0.00 0.00 0.00 57 1020.1
20260906173016 79 90 2.0 3.0 0.00 0.00 0.00 58 1020.1
20260906172016 79 45 1.0 3.0 0.00 0.00 0.00 59 1020.4
20260906171016 79 90 1.0 3.0 0.00 0.00 0.00 62 1020.4
20260906170016 78 0.0 2.0 0.00 0.00 0.00 65 1020.4
20260906165016 77 113 2.0 4.0 0.00 0.00 0.00 65 1020.3
20260906164016 76 0.0 2.0 0.00 0.00 0.00 67 1020.4
20260906163016 76 113 1.0 3.0 0.00 0.00 0.00 68 1020.3
20260906162016 76 90 1.0 3.0 0.00 0.00 0.00 68 1020.2
20260906161016 75 0.0 3.0 0.00 0.00 0.00 69 1020.1
20260906160016 75 45 1.0 3.0 0.00 0.00 0.00 69 1020.1
20260906155016 75 0.0 1.0 0.00 0.00 0.00 73 1019.9
20260906154016 75 90 1.0 3.0 0.00 0.00 0.00 73 1020.0
20260906153016 74 0.0 3.0 0.00 0.00 0.00 76 1019.9
20260906152016 73 90 1.0 3.0 0.00 0.00 0.00 77 1019.9
20260906151016 73 0.0 1.0 0.00 0.00 0.00 79 1019.9
20260906150016 73 0.0 2.0 0.00 0.00 0.00 78 1019.9
20260906145016 73 0.0 1.0 0.00 0.00 0.00 79 1020.0
20260906144016 73 113 1.0 2.0 0.00 0.00 0.00 81 1020.0
20260906143016 72 113 1.0 3.0 0.00 0.00 0.00 82 1019.9
20260906142016 71 113 1.0 2.0 0.00 0.00 0.00 84 1019.9
20260906141016 71 0.0 1.0 0.00 0.00 0.00 86 1019.9
20260906140016 70 0.0 1.0 0.00 0.00 0.00 87 1020.1
20260906135016 70 0.0 1.0 0.00 0.00 0.00 87 1020.0
20260906134016 70 0.0 2.0 0.00 0.00 0.00 88 1019.9
20260906133016 69 113 1.0 2.0 0.00 0.00 0.00 89 1019.5
20260906132016 69 0.0 2.0 0.00 0.00 0.00 91 1019.5
20260906131016 69 0.0 2.0 0.00 0.00 0.00 92 1019.6
20260906130016 68 0.0 1.0 0.00 0.00 0.00 92 1019.6
20260906125016 68 0.0 1.0 0.00 0.00 0.00 92 1019.6
20260906124016 67 0.0 1.0 0.00 0.00 0.00 92 1019.4
20260906123016 67 0.0 1.0 0.00 0.00 0.00 92 1019.1
20260906122016 67 0.0 0.0 0.00 0.00 0.00 92 1019.2
20260906121016 66 0.0 0.0 0.00 0.00 0.00 92 1019.1
20260906120016 66 0.0 0.0 0.00 0.00 0.00 92 1018.9
20260906115016 66 0.0 0.0 0.00 0.00 0.00 91 1018.7
20260906114016 66 0.0 0.0 0.00 0.00 0.00 91 1018.4
20260906113016 66 0.0 0.0 0.00 0.00 0.00 91 1018.3
20260906112016 66 0.0 0.0 0.00 0.00 0.00 91 1018.3
20260906111021 66 0.0 0.0 0.00 0.00 0.00 91 1018.4
20260906110016 66 0.0 0.0 0.00 0.00 0.00 91 1018.3
20260906105016 66 0.0 0.0 0.00 0.00 0.00 91 1018.2
20260906104016 66 0.0 1.0 0.00 0.00 0.00 91 1018.2
20260906103016 66 0.0 1.0 0.00 0.00 0.00 91 1018.1
20260906102016 66 0.0 0.0 0.00 0.00 0.00 91 1017.8
20260906101016 66 0.0 0.0 0.00 0.00 0.00 91 1018.0
20260906100016 66 0.0 0.0 0.00 0.00 0.00 91 1018.0
20260906095016 67 0.0 0.0 0.00 0.00 0.00 91 1017.9
20260906094016 66 0.0 0.0 0.00 0.00 0.00 91 1017.9
20260906093016 66 0.0 0.0 0.00 0.00 0.00 90 1017.9
20260906092016 67 0.0 0.0 0.00 0.00 0.00 90 1017.8
20260906091016 67 0.0 0.0 0.00 0.00 0.00 90 1017.9
20260906090016 67 0.0 0.0 0.00 0.00 0.00 90 1017.8
20260906085018 67 0.0 0.0 0.00 0.00 0.00 90 1017.7
20260906084016 67 0.0 0.0 0.00 0.00 0.00 90 1017.7
20260906083016 67 0.0 0.0 0.00 0.00 0.00 90 1017.7
20260906082016 67 0.0 0.0 0.00 0.00 0.00 89 1017.7
20260906081016 68 0.0 0.0 0.00 0.00 0.00 89 1017.6
20260906080016 68 0.0 0.0 0.00 0.00 0.00 89 1017.7
20260906075016 68 0.0 0.0 0.00 0.00 0.00 89 1017.6
20260906074016 68 0.0 0.0 0.00 0.00 0.00 89 1017.6
20260906073016 69 0.0 1.0 0.00 0.00 0.00 89 1017.6
20260906072016 69 0.0 0.0 0.00 0.00 0.00 89 1017.7
20260906071016 69 0.0 0.0 0.00 0.00 0.00 89 1017.7
20260906070016 69 0.0 0.0 0.00 0.00 0.00 89 1017.8
20260906065016 69 0.0 0.0 0.00 0.00 0.00 88 1017.8
20260906064016 69 0.0 0.0 0.00 0.00 0.00 88 1017.7
20260906063016 70 0.0 1.0 0.00 0.00 0.00 88 1017.8
20260906062016 70 0.0 0.0 0.00 0.00 0.00 88 1017.7
20260906061016 70 0.0 0.0 0.00 0.00 0.00 88 1017.8
20260906060016 70 0.0 0.0 0.00 0.00 0.00 88 1017.8
20260906055016 70 0.0 0.0 0.00 0.00 0.00 88 1017.9
20260906054016 70 0.0 0.0 0.00 0.00 0.00 88 1017.9
20260906053016 70 0.0 0.0 0.00 0.00 0.00 88 1017.8
20260906052016 70 0.0 0.0 0.00 0.00 0.00 88 1017.6
20260906051016 70 0.0 0.0 0.00 0.00 0.00 88 1017.5
20260906050016 70 0.0 0.0 0.00 0.00 0.00 88 1017.4
20260906045017 70 0.0 2.0 0.00 0.00 0.00 88 1017.5
20260906044017 70 0.0 1.0 0.00 0.00 0.00 87 1017.3
20260906043017 70 0.0 1.0 0.00 0.00 0.00 87 1017.1
20260906042017 70 0.0 1.0 0.00 0.00 0.00 87 1016.9
20260906041017 70 0.0 2.0 0.00 0.00 0.00 87 1016.8
20260906040017 70 0.0 2.0 0.00 0.00 0.00 87 1016.7
20260906035016 70 0.0 1.0 0.00 0.00 0.00 86 1016.7
20260906034017 70 0.0 2.0 0.00 0.00 0.00 86 1016.7
20260906033017 70 0.0 1.0 0.00 0.01 0.00 86 1016.5
20260906032017 71 0.0 2.0 0.00 0.01 0.00 86 1016.6
20260906031016 71 0.0 1.0 0.00 0.01 0.00 86 1016.7
20260906030016 71 0.0 0.0 0.00 0.01 0.00 86 1016.7
20260906025016 71 0.0 1.0 0.00 0.01 0.00 85 1016.8
20260906024017 71 0.0 1.0 0.00 0.01 0.00 85 1016.6
20260906023016 71 0.0 3.0 0.00 0.01 0.00 85 1016.5
20260906022017 71 0.0 1.0 0.00 0.01 0.00 84 1016.4
20260906021016 71 0.0 1.0 0.00 0.01 0.00 84 1016.3
20260906020017 71 0.0 2.0 0.00 0.01 0.00 84 1016.4
20260906015017 72 0.0 1.0 0.00 0.01 0.00 84 1016.6
20260906014017 72 0.0 1.0 0.00 0.01 0.00 84 1016.6
20260906013017 72 0.0 2.0 0.00 0.01 0.00 84 1016.6
20260906012017 72 0.0 3.0 0.00 0.01 0.00 84 1016.7
20260906011017 72 0.0 1.0 0.00 0.01 0.00 84 1016.6
20260906010017 72 0.0 2.0 0.00 0.01 0.00 83 1016.3
20260906005016 72 0.0 2.0 0.00 0.01 0.00 83 1016.2
20260906004017 72 0.0 2.0 0.00 0.01 0.00 83 1016.0
20260906003017 72 45 1.0 6.0 0.00 0.01 0.00 83 1016.0
20260906002016 72 45 1.0 3.0 0.00 0.01 0.00 83 1016.0
20260906001016 72 0.0 2.0 0.00 0.01 0.00 83 1016.0
20260906000017 72 0.0 3.0 0.00 0.01 0.00 83 1015.9
20260905235017 73 45 1.0 3.0 0.00 0.01 0.00 82 1015.8
20260905234017 73 45 1.0 3.0 0.00 0.01 0.00 81 1016.0
20260905233017 74 45 2.0 4.0 0.00 0.01 0.00 80 1015.9
20260905232017 74 45 1.0 3.0 0.00 0.01 0.00 80 1015.8
20260905231017 75 45 2.0 7.0 0.00 0.01 0.00 79 1015.7
20260905230017 76 45 1.0 3.0 0.00 0.01 0.00 79 1015.6
20260905225016 76 68 1.0 3.0 0.00 0.01 0.00 78 1015.5
20260905224017 77 68 1.0 4.0 0.00 0.01 0.00 77 1015.5
20260905223017 78 0.0 3.0 0.00 0.01 0.00 77 1015.4
20260905222016 79 68 1.0 3.0 0.00 0.01 0.00 76 1015.4
20260905221016 79 0.0 2.0 0.00 0.01 0.00 76 1015.4
20260905220017 80 45 1.0 3.0 0.00 0.01 0.00 75 1015.4
20260905215016 80 68 1.0 2.0 0.00 0.01 0.00 75 1015.3
20260905214016 81 90 1.0 3.0 0.00 0.01 0.00 74 1015.3
20260905213016 81 0.0 2.0 0.00 0.01 0.00 72 1015.1
20260905212017 82 90 1.0 3.0 0.00 0.01 0.00 70 1015.0
20260905211017 82 0.0 2.0 0.00 0.01 0.00 70 1014.9
20260905210017 82 0.0 2.0 0.00 0.01 0.00 71 1014.9
20260905205016 83 23 1.0 4.0 0.00 0.01 0.00 69 1015.2
20260905204016 83 0.0 2.0 0.00 0.01 0.00 70 1015.1
20260905203017 82 0.0 1.0 0.00 0.01 0.00 73 1015.2
20260905202016 81 90 1.0 2.0 0.00 0.01 0.00 75 1015.1
20260905201017 80 45 1.0 3.0 0.00 0.01 0.00 74 1015.1
20260905200016 80 0.0 2.0 0.00 0.01 0.00 77 1015.2
20260905195016 79 0.0 2.0 0.00 0.01 0.00 79 1015.2
20260905194016 77 0.0 2.0 0.00 0.01 0.00 80 1015.4
20260905193017 77 0.0 1.0 0.00 0.01 0.00 81 1015.4
20260905192016 77 0.0 2.0 0.00 0.01 0.00 80 1015.6
20260905191017 77 0.0 2.0 0.00 0.01 0.00 80 1015.6
20260905190016 78 0.0 1.0 0.00 0.01 0.00 81 1015.7
20260905185017 77 0.0 1.0 0.00 0.01 0.00 80 1015.6
20260905184016 77 0.0 1.0 0.00 0.01 0.00 80 1015.7
20260905183016 77 0.0 1.0 0.00 0.01 0.00 81 1015.7
20260905182016 77 0.0 1.0 0.00 0.01 0.00 82 1015.8